Showing default

TELSTAR 2 (A-41), 573

Orbit data source: Space-Track

TELSTAR 2 (A-41), 573 is a payload satellite owned by AT&T (US) in HEO that was launched on Tue, 07 May 1963 UTC via a THOR DELTA B launch vehicle from the Air Force Eastern Test Range (AFETR). Payload-class satellites include a variety of spacecraft equipped with specific instruments for various scientific and technological missions. These include communications satellites like Starlink; space stations such as the ISS; scientific satellites like the Hubble; Earth observation satellites from companies like Planet Labs, Umbra, and HawkEye 360; GPS; miniature CubeSats for education and research; and military/defense satellites.

Loading next visibility...
Identifier
573, 1963-013A
Orbit
HEO
Last TLE update
1 day ago
Origin
Manufacturer
AT&T/BTL
Mission
Commercial Communications
Bus & Motor
TSX, Unknown motor
Mass
79 kg wet, 79 kg dry
Launch date (UTC)
1963-05-07 (62 years ago)
Launch vehicle
THOR DELTA B
Launch site
Air Force Eastern Test Range (AFETR)
Object type
Payload
Rocket body
Debris
Shape & HBR
Sphere + 1 Ant, 1.5 m
Radar Cross Section
0.677 m², Medium (>0.1 m² and < 1m²)

Expand to show TLE details & history

TLE from 1 day ago
0 TELSTAR 2 (A-41)
1 00573U 63013A   25128.11467534 -.00000053  00000-0  20725-3 0  9995
2 00573  42.7666  52.0851 4014560  17.8024 359.2557  6.39270911560242
Epoch: 2025-05-08T02:45Z
Definitive object data (Epoch: 2025-05-08T02:45:07.949Z)
Latitude
10.8064°
Longitude
156.45042°
Altitude
959.876 km
Speed
8.727 km/s
True Right ascension
04h 15m 41s
True Declination
10° 44' 42"
Sunlit
Object was in daylight at TLE epoch
Visualization TLE readout
Latitude
-36.52295°
Longitude
16.31583°
Altitude
8,317.472 km
Speed
4.666 km/s
Apparent Right ascension
20h 25m 23s
Apparent Declination
-54° 42' 53"
Sunlit
Object is in daylight
Visualization observer readout
Local Sidereal Time
15:54:28
Azimuth
145.109° SSE
Elevation
-20.848°
Doppler factor
1
Orbital elements
Apogee altitude
10,810.549 km
Perigee altitude
962.932 km
Semi-major axis
12,264.877 km
Eccentricity
0.401456
Inclination
42.7666°
RAAN
52.0851°
Arg. of periapsis
17.8024°
True anomaly
358.0974°
Mean anomaly
359.2557°
Eccentric anomaly
358.75655°
Mean motion
1.5979 °/min
BSTAR
0.00020725
Orbital period
225.3 mins
Loading maneuver chart data...
Loading SW <> Apogee altitude chart data...
Loading historical data...
Loading historical data...
Loading historical data...
Loading historical data...
Loading historical data...
Loading historical data...
Loading historical data...
Other satellites on launch #13 in the year 1963 (1963-05-07 UTC)

TELSTAR 2 (A-41) Visibility forecast

Observer location: undefined°, undefined°

Span
Click to sort rows by Start time (UTC) header in descending order
Start Az.
Max El. time (UTC)
Max El. Az.
Max El.
End time (UTC)
End Az.
26 mins2025-05-09 09:49:25.509Z259.878° W2025-05-09 10:01:25.509Z248.349° W11.123°2025-05-09 10:15:25.509Z237.254° WSW
5 mins2025-05-09 20:07:25.509Z139.999° SSE2025-05-09 20:09:25.509Z118.211° SE13.804°2025-05-09 20:12:25.509Z93.325° ESE
29 mins2025-05-09 23:58:25.509Z262.817° W2025-05-10 00:04:25.509Z7.655° NNE44.76°2025-05-10 00:27:25.509Z80.759° E
80 mins2025-05-10 03:53:25.509Z289.375° WNW2025-05-10 04:09:25.509Z204.773° SW44.168°2025-05-10 05:13:25.509Z136.129° SSE
|